Grand Rapids, MI

9:21 AM EDT on August 22, 2017 (GMT -0400)
Gerald R. Ford International

Weather History for KGRR - January, 2014

Change the Weather History Date:

Monday, January 13, 2014

  Actual Average Record
Temperature  
Mean Temperature 37 °F 24 °F  
Max Temperature 43 °F 31 °F 58 °F (1932)
Min Temperature 31 °F 18 °F -5 °F (2015)
Degree Days  
Heating Degree Days 28 41  
Month to date heating degree days 590 524  
Since 1 July heating degree days 3110 2973  
Cooling Degree Days 0 0  
Month to date cooling degree days 0 0  
Year to date cooling degree days 0 0  
Moisture  
Dew Point 31 °F    
Average Humidity 70    
Maximum Humidity 82    
Minimum Humidity 57    
Precipitation  
Precipitation T in 0.07 in 1.17 in (2005)
Month to date precipitation 2.06 0.98  
Year to date precipitation 2.06 0.98  
Snow  
Snow 0.00 in 0.70 in 10.50 in (1979)
Month to date snowfall 16.1 9.2  
Since 1 July snowfall 53.0 38.4  
Snow Depth 6.00 in    
Sea Level Pressure  
Sea Level Pressure 29.61 in    
Wind  
Wind Speed 11 mph (SW)    
Max Wind Speed 18 mph    
Max Gust Speed 23 mph    
Visibility 9 miles    
Events Rain    
T = Trace of Precipitation, MM = Missing Value Source: NWS Daily Summary

Daily Weather History Graph

Daily Weather History Graph

Search for Another Location

Airport or City:

Trip Planner

Search our weather history database for the weather conditions in past years. The results will help you decide how hot, cold, wet, or windy it might be!

Date:

Astronomy

Jan. 13, 2014 Rise Set
Actual Time 8:11 AM EST 5:30 PM EST
Civil Twilight 7:39 AM EST 6:02 PM EST
Nautical Twilight 7:04 AM EST 6:37 PM EST
Astronomical Twilight 6:30 AM EST 7:11 PM EST
Moon 3:45 PM EST (1/13) 5:58 AM EST (1/13)
Length of Visible Light 10h 22m
Length of Day
9h 19m
Waxing Gibbous, 95% of the Moon is Illuminated
Jan 13
Waxing Gibbous
Jan 15
Full
Jan 24
Last Quarter
Jan 30
New
Feb 6
First Quarter

Hourly Weather History & Observations

Time (EST) Temp. Windchill Dew Point Humidity Pressure Visibility Wind Dir Wind Speed Gust Speed Precip Events Conditions
12:53 AM 36.0 °F 29.0 °F 27.0 °F 70% 29.66 in 10.0 mi South 9.2 mph - N/A   Clear
1:53 AM 37.0 °F 30.4 °F 27.0 °F 67% 29.65 in 10.0 mi South 9.2 mph - N/A   Clear
2:53 AM 42.1 °F 35.2 °F 28.9 °F 60% 29.62 in 10.0 mi SSW 12.7 mph - N/A   Clear
3:53 AM 43.0 °F 36.4 °F 30.0 °F 60% 29.61 in 10.0 mi SSW 12.7 mph - N/A   Clear
4:53 AM 43.0 °F 36.8 °F 30.0 °F 60% 29.60 in 10.0 mi SSW 11.5 mph - N/A   Clear
5:53 AM 42.1 °F 35.2 °F 30.0 °F 62% 29.58 in 10.0 mi SSW 12.7 mph - N/A   Scattered Clouds
6:53 AM 41.0 °F 33.9 °F 30.0 °F 65% 29.57 in 10.0 mi SSW 12.7 mph - N/A   Scattered Clouds
7:53 AM 39.9 °F 33.4 °F 30.0 °F 68% 29.57 in 10.0 mi South 10.4 mph - N/A   Scattered Clouds
8:53 AM 39.9 °F 33.4 °F 30.0 °F 68% 29.57 in 10.0 mi South 10.4 mph - N/A   Mostly Cloudy
9:53 AM 41.0 °F 34.3 °F 30.9 °F 67% 29.57 in 10.0 mi SSW 11.5 mph - N/A   Mostly Cloudy
10:53 AM 41.0 °F 34.7 °F 30.9 °F 67% 29.58 in 10.0 mi SW 10.4 mph - N/A   Overcast
11:36 AM 41.0 °F 35.8 °F 32.0 °F 70% 29.55 in 7.0 mi SW 8.1 mph - 0.00 in Rain Light Rain
11:53 AM 39.9 °F 34.5 °F 33.1 °F 77% 29.57 in 9.0 mi SSW 8.1 mph - 0.02 in Rain Light Rain
12:13 PM 39.2 °F 34.2 °F 33.8 °F 81% 29.53 in 10.0 mi SSW 6.9 mph - 0.00 in Rain Light Rain
12:53 PM 41.0 °F 35.2 °F 34.0 °F 76% 29.53 in 10.0 mi SW 9.2 mph - 0.00 in   Overcast
1:53 PM 41.0 °F 32.2 °F 33.1 °F 73% 29.54 in 10.0 mi WSW 18.4 mph 23.0 mph N/A   Overcast
2:53 PM 41.0 °F 34.7 °F 33.1 °F 73% 29.54 in 10.0 mi WSW 10.4 mph - N/A   Mostly Cloudy
3:53 PM 41.0 °F 33.9 °F 33.1 °F 73% 29.55 in 10.0 mi WSW 12.7 mph - N/A   Mostly Cloudy
4:53 PM 41.0 °F 35.8 °F 33.1 °F 73% 29.58 in 10.0 mi West 8.1 mph - N/A   Scattered Clouds
5:53 PM 39.0 °F 31.4 °F 32.0 °F 76% 29.60 in 10.0 mi WSW 12.7 mph - N/A   Scattered Clouds
6:53 PM 37.0 °F 30.4 °F 32.0 °F 82% 29.63 in 10.0 mi WSW 9.2 mph - N/A   Scattered Clouds
7:53 PM 35.1 °F 28.6 °F 30.9 °F 85% 29.65 in 9.0 mi WSW 8.1 mph - N/A   Partly Cloudy
8:09 PM 35.6 °F 29.2 °F 32.0 °F 87% 29.64 in 9.0 mi WSW 8.1 mph - N/A   Mostly Cloudy
8:53 PM 37.0 °F 31.0 °F 32.0 °F 82% 29.66 in 8.0 mi West 8.1 mph - N/A   Mostly Cloudy
9:08 PM 35.6 °F 28.0 °F 30.2 °F 81% 29.65 in 7.0 mi West 10.4 mph - N/A   Scattered Clouds
9:27 PM 35.6 °F 28.6 °F 30.2 °F 81% 29.66 in 7.0 mi West 9.2 mph - N/A   Mostly Cloudy
9:53 PM 36.0 °F 27.1 °F 30.0 °F 79% 29.68 in 8.0 mi West 13.8 mph 19.6 mph N/A   Overcast
10:46 PM 33.8 °F 25.8 °F 28.4 °F 81% 29.68 in 9.0 mi West 10.4 mph - N/A   Scattered Clouds
10:53 PM 34.0 °F 25.0 °F 28.0 °F 79% 29.70 in 9.0 mi West 12.7 mph - N/A   Partly Cloudy
11:53 PM 32.0 °F 25.6 °F 26.1 °F 79% 29.70 in 10.0 mi West 6.9 mph - N/A   Clear